Regional Weather Roundup
Issued by NWS

Home | Current Version | Previous Version | Text Only | Print | Product List | Glossary Off
Versions: 1 2 3 4 5 6 7 8 9 10 11 12 13 14 15 16 17 18 19 20 21 22 23 24 25 26 27 28 29 30 31 32 33 34 35 36 37 38 39 40 41 42 43 44 45 46 47 48 49 50

000
ASUS43 KLSX 260659
RWRMO

WEATHER SUMMARY FOR MISSOURI
NATIONAL WEATHER SERVICE SPRINGFIELD MO
200 AM CDT SUN MAR 26 2017

NOTE: "FAIR" INDICATES FEW OR NO CLOUDS BELOW 12,000 FEET WITH NO
       SIGNIFICANT WEATHER AND/OR OBSTRUCTIONS TO VISIBILITY.
       CURRENT SKY AND/OR WEATHER CONDITIONS ARE NOT AVAILABLE FOR
       CHILLICOTHE AND FARMINGTON.

MOZ001>031-035>038-043-044-053-054-260800-
...NORTHERN AND WESTERN MISSOURI...

CITY           SKY/WX    TMP DP  RH WIND       PRES   REMARKS
KANSAS CTY INT CLOUDY    44  42  93 NW5       29.87F
KANSAS C DTWN  CLOUDY    46  42  86 NW6       29.87S
LEE`S SUMMIT   CLOUDY    45  43  93 W10       29.87R
ST JOSEPH      CLOUDY    43  43 100 NW6       29.89S
CHILLICOTHE      N/A     45  44  97 NW6       29.86S
KIRKSVILLE     CLOUDY    46  46 100 NW8       29.81F

$$
MOZ066>068-077>081-088>096-101>105-260800-
...SOUTHWEST MISSOURI...

CITY           SKY/WX    TMP DP  RH WIND       PRES   REMARKS
SPRINGFIELD    CLOUDY    47  44  90 SW6       29.87F
JOPLIN         CLOUDY    47  44  90 SW7       29.90F

$$
MOZ032>034-039>042-045>050-055>058-069>072-260800-
...CENTRAL MISSOURI...

CITY           SKY/WX    TMP DP  RH WIND       PRES   REMARKS
COLUMBIA       CLOUDY    50  50 100 SW12      29.83S FOG
JEFFERSON CITY CLOUDY    52  48  86 SW9       29.85S FOG
ROLLA          CLOUDY    48  46  93 SW10      29.86R
SEDALIA        CLOUDY    49  32  52 NW8       29.86S
WARRENSBURG    CLOUDY    46  45  93 NW3       29.85F
OSAGE BEACH    LGT RAIN N/A N/A N/A SW8       29.88S

$$
MOZ051-052-059>065-260800-
...EAST CENTRAL MISSOURI...

CITY           SKY/WX    TMP DP  RH WIND       PRES   REMARKS
ST LOUIS INTL  CLOUDY    55  50  83 SW8       29.86R
SPIRIT OF STL  CLOUDY    53  49  86 SW10      29.85S
ST CHARLES     CLOUDY    54  52  93 SW9       29.84S

$$
MOZ072>076-082>087-097>100-106>115-260800-
...SOUTH CENTRAL AND SOUTHEAST MISSOURI...

CITY           SKY/WX    TMP DP  RH WIND       PRES   REMARKS
CAPE GIRARDEAU CLOUDY    56  54  93 S12       29.89S
FARMINGTON     CLOUDY    53  50  89 SW7       29.88S
POPLAR BLUFF   CLOUDY    55  49  80 W3        29.90F
WEST PLAINS    CLOUDY    49  46  90 SW5       29.91S

$$



USA.gov is the U.S. government's official web portal to all federal, state and local government web resources and services.